CAPE
0 0 0 0 0 0 0 0 0 0 0 0 0 0 0 0 0 0 0 0 0 0 0 0 0 0 0 0 0 0 0 0 0 0 0 0 0 0 0 0 0 0 0 0
0 0 0 0 0 0 0 0 0 0 0 0 0 0 0 0 0 0 0 0 0 0 0 0 0 0 0 0 0 0 0 0 0 0 0 0 0 0 0 0 0 0 0 0
0 0 0 0 0 0 0 0 0 0 0 0 0 0 0 0 0 0 0 0 0 0 0 0 0 0 0 0 0 0 0 0 0 0 0 0 0 0 0 0 0 0 0 0
0 0 0 0 0 0 0 0 0 0 0 0 0 0 0 0 0 0 0 0 0 0 0 0 0 0 0 0 0 0 0 0 0 0 0 0 0 0 0 0 0 0 0 0
0 0 0 0 0 0 0 0 0 0 0 0 0 0 0 0 0 0 0 0 0 0 0 0 0 0 0 0 0 0 0 0 0 0 0 0 0 0 0 0 0 0 0 0
0 0 0 0 0 0 0 0 0 0 0 0 0 0 0 0 0 0 0 0 0 0 0 0 0 0 0 0 0 0 0 0 0 0 0 0 0 0 0 0 0 0 0 0
0 0 0 0 0 0 0 0 0 0 0 0 0 0 0 0 0 0 0 0 0 0 0 0 0 0 0 0 0 0 0 0 0 0 0 0 0 0 0 0 0 0 0 0
0 0 0 0 0 0 0 0 0 0 0 0 0 0 0 0 0 0 0 0 0 0 0 0 0 0 0 0 0 0 0 0 0 0 0 0 0 0 0 0 0 0 0 0
0 0 0 0 0 0 0 0 0 0 0 0 0 0 0 0 0 0 0 0 0 0 0 0 0 0 0 0 0 0 0 0 0 0 0 0 0 0 0 0 0 0 0 0
0 0 0 0 0 0 0 0 0 0 0 0 0 0 0 0 0 0 0 0 0 0 0 0 0 0 0 0 0 0 0 0 0 0 0 0 0 0 0 0 0 0 0 0
0 0 0 0 0 0 0 0 0 0 0 0 0 0 0 0 0 0 0 0 0 0 0 0 0 0 0 0 0 0 0 0 0 0 0 0 0 0 0 0 0 0 0 0
0 0 0 0 0 0 0 0 0 0 0 0 0 0 0 0 0 0 0 0 0 0 0 0 0 0 0 0 0 0 0 0 0 0 0 0 0 0 0 0 0 0 0 0
0 0 0 0 0 0 0 0 0 0 0 0 0 0 0 0 0 0 0 0 0 0 0 0 0 0 0 0 0 0 0 0 0 0 0 0 0 0 0 0 0 0 0 0
0 0 0 0 0 0 0 0 0 0 0 0 0 0 0 0 0 0 0 0 0 0 0 0 0 0 0 0 0 0 0 0 0 0 0 0 0 0 0 0 0 0 0 0
0 0 0 0 0 0 0 0 0 0 0 0 0 0 0 0 0 0 0 0 0 0 0 0 0 0 0 0 0 0 0 0 0 0 0 0 0 0 0 0 0 0 0 0
0 0 0 0 0 0 0 0 0 0 0 0 0 0 0 0 0 0 0 0 0 0 0 0 0 0 0 0 0 0 0 0 0 0 0 0 0 0 0 0 0 0 0 0
0 0 0 0 0 0 0 0 0 0 0 0 0 0 0 0 0 0 0 0 0 0 0 0 0 0 0 0 0 0 0 0 0 0 0 0 0 0 0 0 0 0 0 0
0 0 0 0 0 0 0 0 0 0 0 0 0 0 0 0 0 0 0 0 0 0 0 0 0 0 0 0 0 0 0 0 0 0 0 0 0 0 0 0 0 0 0 0
0 0 0 0 0 0 0 0 0 0 0 0 0 0 0 0 0 0 0 0 0 0 0 0 0 0 0 0 0 0 0 0 0 0 0 0 0 0 0 0 0 0 0 0
0 0 0 0 0 0 0 0 0 0 0 0 0 0 0 0 0 0 0 0 0 0 0 0 0 0 0 0 0 0 1 0 0 1 1 0 0 0 0 0 0 0 0 0
0 1 0 0 0 0 0 0 0 0 0 0 0 0 0 0 0 0 0 0 0 0 0 0 0 0 0 0 0 0 0 0 1 0 0 0 4 0 0 0 0 0 0 0
0 0 0 0 0 0 0 0 0 0 0 0 0 0 0 0 0 0 0 0 0 0 0 0 0 0 0 0 0 0 0 0 2 2 0 0 0 1 1 0 0 0 0 0
0 0 0 0 0 0 0 0 0 0 0 0 0 0 0 0 0 0 0 0 0 0 0 0 0 0 0 0 0 1 0 0 0 0 1 0 0 0 0 0 0 0 0 0
0 0 0 0 0 0 0 0 0 0 0 0 0 0 0 0 0 0 0 0 0 0 0 0 0 1 0 0 0 0 0 0 0 1 1 0 0 0 0 0 0 0 0 0
0 0 0 0 0 0 0 0 0 0 0 0 0 0 0 0 0 0 0 0 0 0 0 0 1 0 0 0 0 0 0 0 1 1 1 1 0 0 0 0 0 0 0 0
0 0 0 0 0 0 0 0 0 0 0 0 0 0 0 0 0 0 0 0 1 1 0 0 0 1 0 0 0 0 0 0 1 2 1 1 1 0 0 0 0 0 0 0
CIN
0 0 0 0 0 0 0 0 0 0 0 0 0 0 0 0 0 0 0 0 0 0 0 0 0 0 0 0 0 0 0 0 0 0 0 0 0 0 0 0 0 0 0 0
0 0 0 0 0 0 0 0 0 0 0 0 0 0 0 0 0 0 0 0 0 0 0 0 0 0 0 0 0 0 0 0 0 0 0 0 0 0 0 0 0 0 0 0
0 0 0 0 0 0 0 0 0 0 0 0 0 0 0 0 0 0 0 0 0 0 0 0 0 0 0 0 0 0 0 0 0 0 0 0 0 0 0 0 0 0 0 0
0 0 0 0 0 0 0 0 0 0 0 0 0 0 0 0 0 0 0 0 0 0 0 0 0 0 0 0 0 0 0 0 0 0 0 0 0 0 0 0 0 0 0 0
0 0 0 0 0 0 0 0 0 0 0 0 0 0 0 0 0 0 0 0 0 0 0 0 0 0 0 0 0 0 0 0 0 0 0 0 0 0 0 0 0 0 0 0
0 0 0 0 0 0 0 0 0 0 0 0 0 0 0 0 0 0 0 0 0 0 0 0 0 0 0 0 0 0 0 0 0 0 0 0 0 0 0 0 0 0 0 0
0 0 0 0 0 0 0 0 0 0 0 0 0 0 0 0 0 0 0 0 0 0 0 0 0 0 0 0 0 0 0 0 0 0 0 0 0 0 0 0 0 0 0 0
0 0 0 0 0 0 0 0 0 0 0 0 0 0 0 0 0 0 0 0 0 0 0 0 0 0 0 0 0 0 0 0 0 0 0 0 0 0 0 0 0 0 0 0
0 0 0 0 0 0 0 0 0 0 0 0 0 0 0 0 0 0 0 0 0 0 0 0 0 0 0 0 0 0 0 0 0 0 0 0 0 0 0 0 0 0 0 0
0 0 0 0 0 0 0 0 0 0 0 0 0 0 0 0 0 0 0 0 0 0 0 0 0 0 0 0 0 0 0 0 0 0 0 0 0 0 0 0 0 0 0 0
0 0 0 0 0 0 0 0 0 0 0 0 0 0 0 0 0 0 0 0 0 0 0 0 0 0 0 0 0 0 0 0 0 0 0 0 0 0 0 0 0 0 0 0
0 0 0 0 0 0 0 0 0 0 0 0 0 0 0 0 0 0 0 0 0 0 0 0 0 0 0 0 0 0 0 0 0 0 0 0 0 0 0 0 0 0 0 0
0 0 0 0 0 0 0 0 0 0 0 0 0 0 0 0 0 0 0 0 0 0 0 0 0 0 0 0 0 0 0 0 0 0 0 0 0 0 0 0 0 0 0 0
0 0 0 0 0 0 0 0 0 0 0 0 0 0 0 0 0 0 0 0 0 0 0 0 0 0 0 0 0 0 0 0 0 0 0 0 0 0 0 0 0 0 0 0
0 0 0 0 0 0 0 0 0 0 0 0 0 0 0 0 0 0 0 0 0 0 0 0 0 0 0 0 0 0 0 0 0 0 0 0 0 0 0 0 0 0 0 0
0 0 0 0 0 0 0 0 0 0 0 0 0 0 0 0 0 0 0 0 0 0 0 0 0 0 0 0 0 0 0 0 0 0 0 0 0 0 0 0 0 0 0 0
0 0 0 0 0 0 0 0 0 0 0 0 0 0 0 0 0 0 0 0 0 0 0 0 0 0 0 0 0 0 0 0 0 0 0 0 0 0 0 0 0 0 0 0
0 0 0 0 0 0 0 0 0 0 0 0 0 0 0 0 0 0 0 0 0 0 0 0 0 0 0 0 0 0 0 0 0 0 0 0 0 0 0 0 0 0 0 0
0 0 0 0 0 0 0 0 0 0 0 0 0 0 0 0 0 0 0 0 0 0 0 0 0 0 0 0 0 0 0 0 0 0 0 0 0 0 0 0 0 0 0 0
0 0 0 0 0 0 0 0 0 0 0 0 0 0 0 0 0 0 0 0 0 0 0 0 0 0 0 0 0 0 0 0 0 -1 -1 0 0 0 0 0 0 0 0 0
0 0 0 0 0 0 0 0 0 0 0 0 0 0 0 0 0 0 0 0 0 0 0 0 0 0 0 0 0 0 0 0 0 0 0 0 0 0 0 0 0 0 0 0
0 0 0 0 0 0 0 0 0 0 0 0 0 0 0 0 0 0 0 0 0 0 0 0 0 0 0 0 0 0 0 0 0 0 0 0 0 0 -1 0 0 0 0 0
0 0 0 0 0 0 0 0 0 0 0 0 0 0 0 0 0 0 0 0 0 0 0 0 0 0 0 0 0 0 0 0 0 0 0 0 0 0 0 0 0 0 0 0
0 0 0 0 0 0 0 0 0 0 0 0 0 0 0 0 0 0 0 0 0 0 0 0 0 0 0 0 0 0 0 0 0 0 0 0 0 0 0 0 0 0 0 0
0 0 0 0 0 0 0 0 0 0 0 0 0 0 0 0 0 0 0 0 0 0 0 0 0 0 0 0 0 0 0 0 0 0 0 0 0 0 0 0 0 0 0 0
0 0 0 0 0 0 0 0 0 0 0 0 0 0 0 0 0 0 0 0 0 0 0 0 0 -1 0 0 0 0 0 0 0 0 0 0 0 0 0 0 0 0 0 0
Wind_Speed
11 15 16 18 19 19 21 22 24 25 25 30 27 32 34 29 25 26 24 22 22 22 21 22 24 26 28 29 30 31 30 28 23 22 22 23 24 23 23 23 23 24 24 24
12 13 14 15 19 19 21 21 23 20 22 26 26 31 20 23 22 23 23 23 23 21 21 22 25 26 28 30 31 32 30 27 22 21 22 23 24 23 23 23 23 23 23 24
15 11 9 16 20 20 21 21 23 23 28 19 28 18 19 21 22 23 25 25 24 24 24 25 26 28 29 30 31 32 31 29 25 22 23 23 24 24 24 24 24 23 23 23
18 11 12 15 20 16 19 22 22 25 27 22 24 19 16 17 21 26 27 28 28 27 25 26 28 29 31 31 31 31 31 29 26 24 25 25 27 28 27 26 24 24 24 24
16 12 12 16 14 11 15 16 17 18 18 17 19 18 16 13 22 27 28 28 29 30 29 29 30 30 30 30 31 31 31 29 28 26 24 25 26 27 28 27 27 25 24 24
19 15 16 14 12 13 8 12 11 15 17 14 14 21 16 18 21 23 27 29 30 32 33 32 31 33 33 33 33 33 33 32 30 28 27 26 27 27 27 26 27 26 25 25
15 16 16 16 13 15 18 16 13 17 17 16 17 18 17 18 18 22 28 30 31 34 36 36 37 39 37 37 36 35 35 35 32 32 30 29 28 28 28 28 27 27 27 26
14 12 15 15 17 16 21 20 20 16 17 20 22 17 17 16 15 23 27 30 33 35 36 37 40 40 40 40 39 38 38 37 35 34 33 31 31 30 30 29 29 28 27 26
14 12 15 17 15 17 18 18 18 18 20 21 18 19 18 15 18 28 33 34 36 38 39 41 41 41 42 42 43 42 42 40 38 36 35 34 32 32 31 30 28 28 27 26
16 11 14 15 15 19 17 17 20 19 21 22 19 21 22 16 22 31 35 37 39 39 40 41 43 44 44 44 45 46 43 42 41 38 35 34 32 30 30 29 30 29 28 27
17 15 15 17 16 18 19 19 18 18 17 22 25 21 21 20 26 32 34 38 41 40 42 44 45 46 47 47 49 50 49 47 45 42 39 37 35 33 31 30 29 28 28 28
17 17 17 17 17 17 17 18 17 21 23 19 24 26 22 20 25 31 40 41 39 39 42 45 47 49 50 51 52 53 53 52 50 46 43 41 38 36 35 34 31 28 28 27
18 18 23 21 19 19 20 19 17 19 23 24 26 27 18 24 31 37 40 40 39 41 45 47 49 51 53 55 56 57 56 56 55 53 48 47 44 42 39 37 34 31 30 30
19 18 17 20 24 25 25 22 20 21 27 29 25 30 28 33 39 41 41 40 39 43 47 50 53 56 58 58 59 59 59 57 56 53 49 47 45 42 40 37 34 31 30 29
19 21 21 19 23 24 23 25 25 25 26 30 32 32 33 36 36 37 40 39 43 48 51 55 57 58 59 60 60 59 59 59 56 55 50 47 44 41 38 35 31 29 28 32
21 26 27 27 26 27 27 28 26 24 25 27 29 34 30 29 32 38 42 42 46 50 57 60 60 60 61 62 63 63 61 60 57 56 54 49 43 37 34 32 31 32 31 31
23 25 31 33 32 35 36 26 25 26 24 27 33 31 32 35 38 43 44 43 48 58 59 59 59 60 62 63 64 64 62 59 57 55 53 47 41 36 33 33 33 35 35 35
23 24 26 33 35 39 30 28 30 29 29 26 30 33 34 36 38 42 39 43 54 56 58 58 59 60 60 59 59 58 57 56 53 49 49 46 39 34 33 38 39 39 36 36
18 23 29 33 38 40 36 29 30 31 31 28 33 32 35 39 43 42 43 50 53 55 55 56 57 57 57 56 53 53 53 52 49 47 44 43 37 35 37 38 40 36 34 33
20 21 26 34 40 44 36 28 26 29 37 28 31 36 41 45 52 49 51 51 52 52 54 56 54 53 53 50 49 50 50 49 45 43 42 42 39 36 36 42 43 35 30 29
28 27 30 33 38 35 30 27 24 38 39 32 35 39 42 46 45 50 52 52 51 53 55 53 51 51 47 46 47 48 47 43 41 42 43 43 42 39 45 41 35 30 28 27
30 32 33 31 36 44 24 28 33 32 31 35 37 40 43 45 47 49 51 52 54 55 53 51 50 47 44 45 45 45 43 39 38 40 40 41 43 42 38 35 31 29 29 29
32 27 33 28 34 28 29 29 28 30 33 36 39 41 44 47 49 50 52 55 55 52 50 47 45 43 42 43 43 43 40 36 33 39 39 38 41 40 35 33 32 29 28 27
27 26 31 35 31 29 27 26 28 30 34 36 39 42 45 48 49 52 54 55 53 50 48 45 43 41 41 43 42 38 36 33 33 31 38 39 39 40 36 32 30 30 29 28
30 29 32 34 31 28 25 27 30 32 35 38 41 43 45 48 51 53 53 52 49 46 44 42 40 39 39 44 41 37 35 34 33 31 31 38 37 37 36 35 35 32 29 29
27 30 32 35 27 28 29 28 31 34 38 41 45 48 46 47 51 51 50 47 45 44 42 40 38 37 40 44 39 36 34 34 34 34 33 34 36 35 35 34 36 32 33 33
Wind_Direction
277 343 332 328 334 339 331 331 324 327 333 320 326 312 310 318 325 325 324 325 327 328 332 331 329 327 326 326 325 323 321 319 316 313 311 309 309 310 310 310 309 308 308 308
180 294 267 264 314 339 326 333 329 350 348 339 334 315 355 351 349 347 345 343 341 340 340 339 335 332 330 329 328 327 326 326 323 319 317 314 315 314 313 313 312 311 309 308
83 171 212 95 348 360 360 359 349 350 328 6 334 10 10 11 13 8 0 355 352 349 344 342 339 338 337 335 333 332 330 329 327 323 320 317 316 315 314 313 312 313 311 310
121 149 146 112 52 307 28 10 3 348 340 350 353 349 8 17 7 359 355 354 353 352 351 347 342 340 337 335 334 333 332 331 330 326 320 316 313 311 312 312 313 312 312 310
125 134 130 103 104 108 73 48 37 27 26 24 19 12 15 26 356 353 355 357 356 355 352 347 344 345 343 340 337 336 335 334 332 329 324 319 314 313 313 312 311 310 311 310
103 113 99 98 95 84 82 61 58 43 29 30 23 6 6 352 349 352 352 349 348 348 347 346 345 341 338 336 335 334 332 332 332 329 325 320 316 314 312 311 310 309 308 307
95 88 78 72 73 63 43 42 44 29 22 13 9 356 351 353 357 357 349 347 345 343 344 341 338 336 334 332 331 330 329 327 327 325 323 320 317 314 311 309 308 307 306 305
80 84 65 56 48 42 26 25 20 11 4 352 348 349 353 360 4 354 351 348 346 344 343 340 338 338 335 334 332 330 328 326 325 322 319 317 314 311 309 308 306 305 305 304
62 64 53 48 49 35 27 21 20 5 358 351 352 347 347 348 343 338 339 342 342 339 338 338 339 338 337 336 333 330 327 325 323 320 318 314 312 309 307 306 304 303 302 301
44 41 45 39 34 26 22 21 9 9 358 350 347 338 333 333 331 334 337 338 338 338 338 337 336 335 335 334 333 331 328 324 322 319 316 313 311 308 306 304 301 300 300 299
31 33 23 18 19 12 12 8 9 3 356 345 341 344 349 339 334 333 336 335 334 336 335 334 334 333 333 332 332 330 327 323 319 316 313 309 307 305 303 300 299 298 297 296
26 14 5 3 7 8 6 1 358 349 346 340 334 324 339 342 339 335 332 332 335 336 336 335 333 332 332 331 330 329 328 324 321 316 311 306 303 302 298 296 295 294 293 294
16 12 357 358 6 7 355 352 348 343 337 323 323 329 341 338 333 332 331 332 333 334 334 334 333 332 331 330 328 327 326 324 322 318 310 305 300 297 295 292 291 290 290 291
4 356 348 340 343 344 338 337 333 330 326 322 310 312 319 325 326 328 330 332 333 333 333 333 331 330 330 329 328 327 326 325 323 321 315 308 303 298 294 291 289 287 288 289
356 343 340 329 333 333 327 321 321 314 309 313 314 314 320 325 327 329 330 331 331 331 331 331 330 330 329 328 327 326 325 325 324 319 316 311 306 302 298 293 290 289 289 291
350 339 341 334 337 334 325 317 321 316 314 311 312 315 331 333 332 331 330 330 329 330 330 329 329 329 328 328 326 325 323 322 322 320 315 312 307 304 298 294 291 291 291 291
344 343 340 335 340 337 333 343 339 335 331 329 324 329 333 330 330 331 330 330 329 329 329 329 330 329 328 327 326 324 323 321 319 318 318 315 309 303 299 291 287 287 290 292
342 340 339 332 337 333 343 342 336 329 329 330 328 330 331 331 331 331 331 331 330 330 331 330 330 329 329 329 329 328 328 324 321 319 320 320 316 310 303 288 285 287 289 290
344 339 334 332 330 327 334 342 340 336 332 334 330 332 333 333 331 332 334 332 331 331 331 331 331 331 331 332 333 333 332 331 328 322 320 320 321 314 302 293 287 289 292 292
345 341 332 331 327 328 336 340 342 337 325 338 336 333 332 332 328 330 332 332 332 332 332 331 332 333 333 335 337 337 337 337 336 330 324 321 319 316 305 288 286 289 292 294
338 335 324 323 324 327 336 338 343 329 329 336 334 332 331 329 329 329 331 332 332 332 332 333 334 334 336 338 338 337 341 343 342 335 328 323 320 316 295 287 289 291 293 295
331 330 327 330 328 328 343 337 329 332 334 333 333 332 330 330 330 330 331 332 332 331 332 334 334 335 337 338 338 340 343 347 347 341 336 329 321 309 302 291 293 292 293 295
327 325 325 322 322 329 334 333 335 335 333 333 332 332 331 330 330 331 331 331 331 332 333 335 336 336 338 338 339 341 346 349 349 347 341 337 324 312 311 300 296 295 294 295
331 329 323 325 327 325 330 334 335 335 333 333 333 332 332 330 331 330 331 331 332 333 334 335 336 337 337 335 338 343 346 349 350 350 344 338 329 318 315 309 303 296 294 294
329 330 326 323 326 328 327 330 334 334 334 333 333 333 332 331 330 330 331 331 333 333 334 336 336 337 336 332 337 342 346 348 348 349 349 343 336 327 319 311 301 297 297 294
325 325 325 326 335 332 333 336 335 334 334 334 333 333 333 332 331 331 331 332 333 333 334 335 336 337 335 331 335 339 342 344 344 344 345 345 339 334 329 320 305 301 298 296